Bainbridge, GA

12:28 PM EDT on October 21, 2019 (GMT -0400)
Decatur County Industrial

Weather History for KBGE - September, 2019

Change the Weather History Date:

Thursday, September 19, 2019

  Actual Average (WUND) Record (WUND)
Temperature  
Mean Temperature 78 °F -  
Max Temperature 89 °F - - (-1)
Min Temperature 66 °F - - (-1)
Cooling Degree Days 12    
Growing Degree Days 28 (Base 50)    
Moisture  
Dew Point 62 °F    
Average Humidity 60    
Maximum Humidity 86    
Minimum Humidity 35    
Precipitation  
Precipitation 0.00 in - - ()
Sea Level Pressure  
Sea Level Pressure 30.09 in    
Wind  
Wind Speed 10 mph ()    
Max Wind Speed 18 mph    
Max Gust Speed 26 mph    
Visibility 10.0 miles    
Events      
Averages and records for this station are not official NWS values.
T = Trace of Precipitation, MM = Missing Value Source: Averaged Metar Reports

Daily Weather History Graph

Daily Weather History Graph

Search for Another Location

Airport or City:

Astronomy

Sep. 19, 2019 Rise Set
Actual Time 7:24 AM EDT 7:39 PM EDT
Civil Twilight 7:00 AM EDT 8:03 PM EDT
Nautical Twilight 6:32 AM EDT 8:31 PM EDT
Astronomical Twilight 6:04 AM EDT 9:00 PM EDT
Moon 11:07 PM EDT (9/19) 12:08 PM EDT (9/19)
Length of Visible Light 13h 02m
Length of Day
12h 14m
Waning Gibbous, 74% of the Moon is Illuminated
Sep 19
Waning Gibbous
Sep 21
Last Quarter
Sep 28
New
Oct 5
First Quarter
Oct 13
Full

Hourly Weather History & Observations

Time (EDT) Temp. Heat Index Dew Point Humidity Pressure Visibility Wind Dir Wind Speed Gust Speed Precip Events Conditions
12:15 AM 77.0 °F - 70.2 °F 79% 30.04 in 10.0 mi ESE 9.2 mph - N/A   Clear
12:35 AM 77.0 °F - 70.5 °F 80% 30.05 in 10.0 mi East 9.2 mph - N/A   Mostly Cloudy
12:55 AM 76.3 °F - 70.3 °F 82% 30.05 in 10.0 mi East 9.2 mph - N/A   Mostly Cloudy
1:15 AM 76.1 °F - 70.5 °F 83% 30.05 in 10.0 mi East 8.1 mph - N/A   Mostly Cloudy
1:35 AM 76.1 °F - 70.5 °F 83% 30.04 in 10.0 mi ESE 10.4 mph - N/A   Mostly Cloudy
1:55 AM 75.6 °F - 70.3 °F 84% 30.04 in 10.0 mi ESE 8.1 mph - N/A   Scattered Clouds
2:15 AM 75.2 °F - 70.3 °F 85% 30.04 in 10.0 mi ESE 8.1 mph - N/A   Clear
2:35 AM 74.8 °F - 70.5 °F 86% 30.05 in 10.0 mi East 8.1 mph - N/A   Mostly Cloudy
2:55 AM 75.2 °F - 69.8 °F 83% 30.04 in 10.0 mi ESE 12.7 mph - N/A   Mostly Cloudy
3:15 AM 74.8 °F - 68.7 °F 81% 30.05 in 10.0 mi East 9.2 mph - N/A   Mostly Cloudy
3:35 AM 74.8 °F - 68.0 °F 79% 30.05 in 10.0 mi ESE 10.4 mph - N/A   Scattered Clouds
3:55 AM 74.7 °F - 67.6 °F 79% 30.05 in 10.0 mi East 8.1 mph - N/A   Mostly Cloudy
4:15 AM 74.7 °F - 67.6 °F 79% 30.06 in 10.0 mi East 6.9 mph - N/A   Overcast
4:35 AM 74.5 °F - 67.5 °F 79% 30.07 in 10.0 mi East 6.9 mph - N/A   Overcast
4:55 AM 73.9 °F - 67.5 °F 80% 30.06 in 10.0 mi East 8.1 mph - N/A   Overcast
5:15 AM 72.7 °F - 67.5 °F 84% 30.06 in 10.0 mi East 8.1 mph - N/A   Scattered Clouds
5:55 AM 72.7 °F - 66.6 °F 81% 30.07 in 10.0 mi East 6.9 mph - N/A   Overcast
6:15 AM 72.5 °F - 66.4 °F 81% 30.08 in 10.0 mi East 9.2 mph - N/A   Overcast
6:35 AM 71.8 °F - 65.8 °F 81% 30.08 in 10.0 mi ENE 9.2 mph - N/A   Scattered Clouds
6:55 AM 71.6 °F - 66.0 °F 82% 30.09 in 10.0 mi East 5.8 mph - N/A   Mostly Cloudy
7:15 AM 71.6 °F - 65.8 °F 82% 30.09 in 10.0 mi East 6.9 mph - N/A   Overcast
7:35 AM 71.4 °F - 65.5 °F 81% 30.10 in 10.0 mi East 8.1 mph - N/A   Overcast
7:55 AM 71.4 °F - 65.3 °F 81% 30.10 in 10.0 mi East 8.1 mph - N/A   Mostly Cloudy
8:15 AM 72.3 °F - 65.1 °F 78% 30.11 in 10.0 mi East 9.2 mph - N/A   Mostly Cloudy
8:35 AM 73.4 °F - 65.1 °F 75% 30.12 in 10.0 mi East 9.2 mph - N/A   Overcast
8:55 AM 74.5 °F - 64.9 °F 72% 30.12 in 10.0 mi East 10.4 mph - N/A   Scattered Clouds
9:15 AM 75.4 °F - 64.8 °F 69% 30.12 in 10.0 mi East 13.8 mph 17.3 mph N/A   Scattered Clouds
9:35 AM 76.8 °F - 64.8 °F 66% 30.12 in 10.0 mi East 10.4 mph - N/A   Clear
9:55 AM 78.3 °F - 64.4 °F 62% 30.13 in 10.0 mi East 13.8 mph - N/A   Clear
10:15 AM 81.1 °F 82.7 °F 64.2 °F 56% 30.13 in 10.0 mi East 12.7 mph - N/A   Clear
10:35 AM 81.0 °F 82.5 °F 63.9 °F 56% 30.13 in 10.0 mi East 12.7 mph 23.0 mph N/A   Scattered Clouds
10:55 AM 82.2 °F 83.7 °F 64.2 °F 54% 30.13 in 10.0 mi East 17.3 mph 25.3 mph N/A   Scattered Clouds
11:15 AM 83.1 °F 84.2 °F 63.5 °F 51% 30.14 in 10.0 mi East 13.8 mph 25.3 mph N/A   Clear
11:35 AM 83.5 °F 84.7 °F 63.5 °F 51% 30.14 in 10.0 mi East 16.1 mph 20.7 mph N/A   Clear
11:55 AM 84.4 °F 85.4 °F 63.3 °F 49% 30.13 in 10.0 mi East 18.4 mph 21.9 mph N/A   Clear
12:15 PM 85.6 °F 86.8 °F 63.9 °F 48% 30.13 in 10.0 mi East 11.5 mph 21.9 mph N/A   Clear
12:35 PM 85.5 °F 86.3 °F 63.1 °F 47% 30.12 in 10.0 mi East 12.7 mph 23.0 mph N/A   Clear
12:55 PM 85.5 °F 86.3 °F 63.0 °F 47% 30.12 in 10.0 mi ESE 11.5 mph - N/A   Clear
1:15 PM 87.3 °F 88.0 °F 62.6 °F 44% 30.11 in 10.0 mi East 13.8 mph 18.4 mph N/A   Scattered Clouds
1:35 PM 87.1 °F 87.8 °F 62.4 °F 44% 30.11 in 10.0 mi East 12.7 mph 19.6 mph N/A   Scattered Clouds
1:55 PM 86.5 °F 87.0 °F 62.4 °F 44% 30.10 in 10.0 mi East 12.7 mph 18.4 mph N/A   Scattered Clouds
2:15 PM 88.0 °F 88.4 °F 62.2 °F 42% 30.10 in 10.0 mi East 9.2 mph - N/A   Scattered Clouds
2:35 PM 86.2 °F 86.6 °F 62.1 °F 44% 30.09 in 10.0 mi East 12.7 mph - N/A   Mostly Cloudy
2:55 PM 88.3 °F 88.6 °F 62.1 °F 41% 30.09 in 10.0 mi East 15.0 mph 20.7 mph N/A   Overcast
3:15 PM 86.7 °F 87.0 °F 61.5 °F 43% 30.08 in 10.0 mi ENE 15.0 mph 24.2 mph N/A   Mostly Cloudy
3:35 PM 89.1 °F 88.5 °F 59.7 °F 37% 30.08 in 10.0 mi ENE 16.1 mph 26.5 mph N/A   Scattered Clouds
3:55 PM 88.3 °F 87.3 °F 58.5 °F 36% 30.07 in 10.0 mi NE 17.3 mph 25.3 mph N/A   Clear
4:15 PM 88.3 °F 87.1 °F 57.6 °F 35% 30.07 in 10.0 mi ENE 12.7 mph 21.9 mph N/A   Clear
4:35 PM 88.5 °F 87.3 °F 57.4 °F 35% 30.07 in 10.0 mi ENE 16.1 mph - N/A   Clear
4:55 PM 87.6 °F 86.3 °F 57.0 °F 35% 30.07 in 10.0 mi ENE 16.1 mph - N/A   Clear
5:35 PM 87.4 °F 86.1 °F 57.0 °F 35% 30.07 in 10.0 mi ENE 15.0 mph - N/A   Clear
5:55 PM 86.5 °F 85.3 °F 56.3 °F 36% 30.08 in 10.0 mi East 16.1 mph - N/A   Clear
6:15 PM 85.8 °F 84.5 °F 56.1 °F 36% 30.08 in 10.0 mi East 17.3 mph 24.2 mph N/A   Clear
6:35 PM 84.7 °F 83.6 °F 55.6 °F 37% 30.08 in 10.0 mi ENE 16.1 mph - N/A   Clear
6:55 PM 83.8 °F 82.8 °F 55.4 °F 38% 30.08 in 10.0 mi ENE 12.7 mph - N/A   Clear
7:15 PM 82.0 °F 81.5 °F 55.2 °F 40% 30.08 in 10.0 mi East 10.4 mph - N/A   Clear
7:35 PM 80.4 °F 80.2 °F 54.3 °F 40% 30.09 in 10.0 mi East 13.8 mph - N/A   Clear
8:15 PM 76.5 °F - 54.1 °F 46% 30.10 in 10.0 mi ENE 8.1 mph - N/A   Clear
8:55 PM 73.9 °F - 54.7 °F 51% 30.11 in 10.0 mi ENE 6.9 mph - N/A   Clear
9:15 PM 72.7 °F - 55.4 °F 55% 30.12 in 10.0 mi ENE 6.9 mph - N/A   Clear
9:55 PM 70.0 °F - 53.6 °F 56% 30.13 in 10.0 mi East 6.9 mph - N/A   Clear
10:15 PM 69.3 °F - 53.6 °F 57% 30.13 in 10.0 mi ENE 8.1 mph - N/A   Clear
10:35 PM 70.0 °F - 52.5 °F 54% 30.13 in 10.0 mi ENE 6.9 mph - N/A   Clear
10:55 PM 70.2 °F - 53.2 °F 55% 30.14 in 10.0 mi ENE 5.8 mph - N/A   Clear
11:15 PM 68.9 °F - 53.8 °F 58% 30.14 in 10.0 mi East 8.1 mph - N/A   Clear
11:35 PM 66.4 °F - 54.0 °F 64% 30.14 in 10.0 mi East 6.9 mph - N/A   Clear
11:55 PM 67.5 °F - 52.7 °F 59% 30.15 in 10.0 mi East 6.9 mph - N/A   Clear